Time,TemperatureF,DewpointF,PressureIn,WindDirection,WindDirectionDegrees,WindSpeedMPH,WindSpeedGustMPH,Humidity,HourlyPrecipIn,Conditions,Clouds,dailyrainin,SoftwareType,DateUTC
2013-05-06 00:00:00,51.9,43.9,30.38,NE,35,1.0,3.0,74,0.00,,,0.00,Wunderground v.1.15,2013-05-06 04:00:00,
2013-05-06 00:04:00,52.0,43.6,30.38,NE,36,1.0,3.0,73,0.00,,,0.00,Wunderground v.1.15,2013-05-06 04:04:00,
2013-05-06 00:10:00,52.0,43.6,30.38,NE,36,1.0,2.0,73,0.00,,,0.00,Wunderground v.1.15,2013-05-06 04:10:00,
2013-05-06 00:14:00,51.8,43.4,30.38,NE,50,2.0,3.0,73,0.00,,,0.00,Wunderground v.1.15,2013-05-06 04:14:00,
2013-05-06 00:20:00,52.0,43.6,30.38,ENE,75,2.0,3.0,73,0.00,,,0.00,Wunderground v.1.15,2013-05-06 04:20:00,
2013-05-06 00:25:00,51.9,43.2,30.38,SSE,166,3.0,4.0,72,0.00,,,0.00,Wunderground v.1.15,2013-05-06 04:25:00,
2013-05-06 00:30:00,52.6,43.1,30.38,SSE,159,3.0,3.0,70,0.00,,,0.00,Wunderground v.1.15,2013-05-06 04:30:00,
2013-05-06 00:35:00,53.0,43.1,30.39,SSE,162,3.0,3.0,69,0.00,,,0.00,Wunderground v.1.15,2013-05-06 04:35:00,
2013-05-06 00:40:00,52.9,42.6,30.39,SSE,162,3.0,3.0,68,0.00,,,0.00,Wunderground v.1.15,2013-05-06 04:40:00,
2013-05-06 00:45:00,52.8,42.5,30.39,SSE,163,3.0,4.0,68,0.00,,,0.00,Wunderground v.1.15,2013-05-06 04:45:00,
2013-05-06 00:50:00,53.4,42.3,30.39,SSE,166,3.0,4.0,66,0.00,,,0.00,Wunderground v.1.15,2013-05-06 04:50:00,
2013-05-06 00:55:00,54.5,42.2,30.39,South,169,4.0,4.0,63,0.00,,,0.00,Wunderground v.1.15,2013-05-06 04:55:00,
2013-05-06 01:00:00,54.2,41.9,30.39,South,182,4.0,4.0,63,0.00,,,0.00,Wunderground v.1.15,2013-05-06 05:00:00,
2013-05-06 01:10:00,53.3,40.6,30.39,South,183,3.0,3.0,62,0.00,,,0.00,Wunderground v.1.15,2013-05-06 05:10:00,
2013-05-06 01:15:00,52.9,39.8,30.38,South,183,3.0,4.0,61,0.00,,,0.00,Wunderground v.1.15,2013-05-06 05:15:00,
2013-05-06 01:20:00,52.6,38.7,30.38,South,185,3.0,3.0,59,0.00,,,0.00,Wunderground v.1.15,2013-05-06 05:20:00,
2013-05-06 01:25:00,52.1,38.6,30.38,South,185,3.0,4.0,60,0.00,,,0.00,Wunderground v.1.15,2013-05-06 05:25:00,
2013-05-06 01:30:00,51.9,38.4,30.38,South,185,3.0,4.0,60,0.00,,,0.00,Wunderground v.1.15,2013-05-06 05:30:00,
2013-05-06 01:40:00,51.9,38.0,30.38,South,185,4.0,4.0,59,0.00,,,0.00,Wunderground v.1.15,2013-05-06 05:40:00,
2013-05-06 01:45:00,51.9,38.0,30.38,South,185,4.0,4.0,59,0.00,,,0.00,Wunderground v.1.15,2013-05-06 05:45:00,
2013-05-06 01:50:00,51.5,37.2,30.38,South,185,4.0,4.0,58,0.00,,,0.00,Wunderground v.1.15,2013-05-06 05:50:00,
2013-05-06 01:55:00,51.4,36.2,30.38,South,185,3.0,4.0,56,0.00,,,0.00,Wunderground v.1.15,2013-05-06 05:55:00,
2013-05-06 02:00:00,51.5,35.9,30.38,South,185,4.0,5.0,55,0.00,,,0.00,Wunderground v.1.15,2013-05-06 06:00:00,
2013-05-06 02:05:00,51.6,35.5,30.38,SSW,200,4.0,5.0,54,0.00,,,0.00,Wunderground v.1.15,2013-05-06 06:05:00,
2013-05-06 02:15:00,52.8,34.7,30.38,South,177,4.0,5.0,50,0.00,,,0.00,Wunderground v.1.15,2013-05-06 06:15:00,
2013-05-06 02:20:00,53.1,34.9,30.38,South,177,4.0,4.0,50,0.00,,,0.00,Wunderground v.1.15,2013-05-06 06:20:00,
2013-05-06 02:25:00,53.2,35.0,30.38,South,171,4.0,4.0,50,0.00,,,0.00,Wunderground v.1.15,2013-05-06 06:25:00,
2013-05-06 02:30:00,52.8,35.2,30.38,South,174,4.0,5.0,51,0.00,,,0.00,Wunderground v.1.15,2013-05-06 06:30:00,
2013-05-06 02:35:00,52.4,35.3,30.38,South,174,4.0,5.0,52,0.00,,,0.00,Wunderground v.1.15,2013-05-06 06:35:00,
2013-05-06 02:45:00,51.5,35.4,30.38,South,174,4.0,4.0,54,0.00,,,0.00,Wunderground v.1.15,2013-05-06 06:45:00,
2013-05-06 02:50:00,51.0,34.9,30.38,South,174,3.0,3.0,54,0.00,,,0.00,Wunderground v.1.15,2013-05-06 06:50:00,
2013-05-06 02:55:00,50.8,34.7,30.38,South,174,3.0,4.0,54,0.00,,,0.00,Wunderground v.1.15,2013-05-06 06:55:00,
2013-05-06 03:00:00,50.5,35.4,30.38,South,174,2.0,4.0,56,0.00,,,0.00,Wunderground v.1.15,2013-05-06 07:00:00,
2013-05-06 03:05:00,50.1,35.0,30.38,South,174,2.0,4.0,56,0.00,,,0.00,Wunderground v.1.15,2013-05-06 07:05:00,
2013-05-06 03:10:00,50.0,35.4,30.39,South,174,2.0,4.0,57,0.00,,,0.00,Wunderground v.1.15,2013-05-06 07:10:00,
2013-05-06 03:20:00,50.6,35.5,30.39,South,175,5.0,6.0,56,0.00,,,0.00,Wunderground v.1.15,2013-05-06 07:20:00,
2013-05-06 03:25:00,50.9,36.2,30.39,South,184,5.0,6.0,57,0.00,,,0.00,Wunderground v.1.15,2013-05-06 07:25:00,
2013-05-06 03:30:00,51.0,36.3,30.39,South,173,5.0,5.0,57,0.00,,,0.00,Wunderground v.1.15,2013-05-06 07:30:00,
2013-05-06 03:35:00,51.4,36.7,30.39,South,173,5.0,5.0,57,0.00,,,0.00,Wunderground v.1.15,2013-05-06 07:35:00,
2013-05-06 03:40:00,51.7,36.5,30.39,South,170,5.0,5.0,56,0.00,,,0.00,Wunderground v.1.15,2013-05-06 07:40:00,
2013-05-06 03:50:00,51.7,36.5,30.39,South,180,4.0,4.0,56,0.00,,,0.00,Wunderground v.1.15,2013-05-06 07:50:00,
2013-05-06 03:55:00,51.3,36.6,30.39,South,182,4.0,4.0,57,0.00,,,0.00,Wunderground v.1.15,2013-05-06 07:55:00,
2013-05-06 04:00:00,51.1,36.8,30.39,South,180,3.0,6.0,58,0.00,,,0.00,Wunderground v.1.15,2013-05-06 08:00:00,
2013-05-06 04:05:00,51.1,36.8,30.39,South,177,4.0,6.0,58,0.00,,,0.00,Wunderground v.1.15,2013-05-06 08:05:00,
2013-05-06 04:10:00,50.9,37.1,30.39,South,183,4.0,5.0,59,0.00,,,0.00,Wunderground v.1.15,2013-05-06 08:10:00,
2013-05-06 04:15:00,50.6,36.8,30.39,South,175,4.0,5.0,59,0.00,,,0.00,Wunderground v.1.15,2013-05-06 08:15:00,
2013-05-06 04:20:00,50.5,37.1,30.39,South,174,4.0,4.0,60,0.00,,,0.00,Wunderground v.1.15,2013-05-06 08:20:00,
2013-05-06 04:25:00,50.6,36.8,30.40,South,173,4.0,4.0,59,0.00,,,0.00,Wunderground v.1.15,2013-05-06 08:25:00,
2013-05-06 04:30:00,50.8,37.0,30.40,South,169,4.0,5.0,59,0.00,,,0.00,Wunderground v.1.15,2013-05-06 08:30:00,
2013-05-06 04:35:00,50.7,36.9,30.40,South,170,4.0,5.0,59,0.00,,,0.00,Wunderground v.1.15,2013-05-06 08:35:00,
2013-05-06 04:44:00,50.3,36.9,30.40,SSE,159,4.0,5.0,60,0.00,,,0.00,Wunderground v.1.15,2013-05-06 08:44:00,
2013-05-06 04:50:00,49.9,37.0,30.40,SSE,162,4.0,5.0,61,0.00,,,0.00,Wunderground v.1.15,2013-05-06 08:50:00,
2013-05-06 04:55:00,49.4,37.3,30.40,SSE,165,4.0,5.0,63,0.00,,,0.00,Wunderground v.1.15,2013-05-06 08:55:00,
2013-05-06 05:00:00,48.9,37.3,30.40,SSE,165,4.0,4.0,64,0.00,,,0.00,Wunderground v.1.15,2013-05-06 09:00:00,
2013-05-06 05:05:00,48.5,37.3,30.40,SSE,167,2.0,4.0,65,0.00,,,0.00,Wunderground v.1.15,2013-05-06 09:05:00,
2013-05-06 05:10:00,48.1,37.3,30.40,SSE,167,2.0,4.0,66,0.00,,,0.00,Wunderground v.1.15,2013-05-06 09:10:00,
2013-05-06 05:15:00,47.9,37.5,30.41,SSE,167,3.0,4.0,67,0.00,,,0.00,Wunderground v.1.15,2013-05-06 09:15:00,
2013-05-06 05:25:00,47.9,37.5,30.41,SSE,167,3.0,4.0,67,0.00,,,0.00,Wunderground v.1.15,2013-05-06 09:25:00,
2013-05-06 05:30:00,47.9,37.5,30.41,SSE,167,3.0,4.0,67,0.00,,,0.00,Wunderground v.1.15,2013-05-06 09:30:00,
2013-05-06 05:35:00,47.9,37.1,30.41,SSE,167,2.0,4.0,66,0.00,,,0.00,Wunderground v.1.15,2013-05-06 09:35:00,
2013-05-06 05:40:00,47.9,37.1,30.41,SSE,167,3.0,6.0,66,0.00,,,0.00,Wunderground v.1.15,2013-05-06 09:40:00,
2013-05-06 05:45:00,47.8,37.0,30.41,SSE,167,4.0,6.0,66,0.00,,,0.00,Wunderground v.1.15,2013-05-06 09:45:00,
2013-05-06 05:50:00,47.6,37.6,30.41,SSE,167,4.0,4.0,68,0.00,,,0.00,Wunderground v.1.15,2013-05-06 09:50:00,
2013-05-06 06:00:00,46.7,37.4,30.41,South,182,4.0,4.0,70,0.00,,,0.00,Wunderground v.1.15,2013-05-06 10:00:00,
2013-05-06 06:10:00,46.2,37.3,30.41,South,182,4.0,4.0,71,0.00,,,0.00,Wunderground v.1.15,2013-05-06 10:10:00,
2013-05-06 06:15:00,46.2,37.7,30.41,South,182,4.0,4.0,72,0.00,,,0.00,Wunderground v.1.15,2013-05-06 10:15:00,
2013-05-06 06:20:00,46.5,37.6,30.42,South,182,4.0,4.0,71,0.00,,,0.00,Wunderground v.1.15,2013-05-06 10:20:00,
2013-05-06 06:30:00,47.6,37.9,30.42,South,177,5.0,7.0,69,0.00,,,0.00,Wunderground v.1.15,2013-05-06 10:30:00,
2013-05-06 06:35:00,48.2,38.1,30.42,South,171,5.0,7.0,68,0.00,,,0.00,Wunderground v.1.15,2013-05-06 10:35:00,
2013-05-06 06:40:00,48.6,38.1,30.42,South,171,5.0,5.0,67,0.00,,,0.00,Wunderground v.1.15,2013-05-06 10:40:00,
2013-05-06 06:45:00,49.0,38.1,30.42,South,177,6.0,6.0,66,0.00,,,0.00,Wunderground v.1.15,2013-05-06 10:45:00,
2013-05-06 06:50:00,49.2,38.3,30.42,South,177,6.0,8.0,66,0.00,,,0.00,Wunderground v.1.15,2013-05-06 10:50:00,
2013-05-06 06:55:00,49.4,38.1,30.42,SSE,164,6.0,8.0,65,0.00,,,0.00,Wunderground v.1.15,2013-05-06 10:55:00,
2013-05-06 07:05:00,49.9,38.6,30.42,South,175,6.0,7.0,65,0.00,,,0.00,Wunderground v.1.15,2013-05-06 11:05:00,
2013-05-06 07:10:00,50.3,39.0,30.42,SSE,167,6.0,6.0,65,0.00,,,0.00,Wunderground v.1.15,2013-05-06 11:10:00,
2013-05-06 07:15:00,50.6,38.9,30.42,South,171,5.0,7.0,64,0.00,,,0.00,Wunderground v.1.15,2013-05-06 11:15:00,
2013-05-06 07:20:00,50.8,39.5,30.43,South,185,5.0,7.0,65,0.00,,,0.00,Wunderground v.1.15,2013-05-06 11:20:00,
2013-05-06 07:25:00,51.1,39.3,30.43,South,171,6.0,7.0,64,0.00,,,0.00,Wunderground v.1.15,2013-05-06 11:25:00,
2013-05-06 07:35:00,51.9,39.7,30.43,SSE,152,6.0,7.0,63,0.00,,,0.00,Wunderground v.1.15,2013-05-06 11:35:00,
2013-05-06 07:40:00,52.2,40.0,30.43,SSE,158,5.0,7.0,63,0.00,,,0.00,Wunderground v.1.15,2013-05-06 11:40:00,
2013-05-06 07:45:00,52.5,40.3,30.43,SSE,164,5.0,7.0,63,0.00,,,0.00,Wunderground v.1.15,2013-05-06 11:45:00,
2013-05-06 07:50:00,52.7,40.5,30.43,SE,143,5.0,7.0,63,0.00,,,0.00,Wunderground v.1.15,2013-05-06 11:50:00,
2013-05-06 07:55:00,52.8,40.5,30.43,SE,143,5.0,7.0,63,0.00,,,0.00,Wunderground v.1.15,2013-05-06 11:55:00,
2013-05-06 08:00:00,53.0,40.3,30.43,South,183,6.0,7.0,62,0.00,,,0.00,Wunderground v.1.15,2013-05-06 12:00:00,
2013-05-06 08:05:00,53.4,40.7,30.43,South,178,7.0,9.0,62,0.00,,,0.00,Wunderground v.1.15,2013-05-06 12:05:00,
2013-05-06 08:14:00,54.3,40.7,30.43,SSE,157,6.0,7.0,60,0.00,,,0.00,Wunderground v.1.15,2013-05-06 12:14:00,
2013-05-06 08:19:00,54.6,41.0,30.43,SSE,165,6.0,6.0,60,0.00,,,0.00,Wunderground v.1.15,2013-05-06 12:19:00,
2013-05-06 08:24:00,54.9,40.8,30.43,SSE,167,7.0,7.0,59,0.00,,,0.00,Wunderground v.1.15,2013-05-06 12:24:00,
2013-05-06 08:29:00,55.0,40.5,30.43,SE,145,8.0,8.0,58,0.00,,,0.00,Wunderground v.1.15,2013-05-06 12:29:00,
2013-05-06 08:35:00,55.5,40.5,30.43,South,177,8.0,10.0,57,0.00,,,0.00,Wunderground v.1.15,2013-05-06 12:35:00,
2013-05-06 08:40:00,56.0,41.0,30.43,SSE,157,8.0,10.0,57,0.00,,,0.00,Wunderground v.1.15,2013-05-06 12:40:00,
2013-05-06 08:45:00,56.3,40.8,30.43,SSE,165,8.0,11.0,56,0.00,,,0.00,Wunderground v.1.15,2013-05-06 12:45:00,
2013-05-06 08:50:00,56.5,40.5,30.44,West,273,9.0,9.0,55,0.00,,,0.00,Wunderground v.1.15,2013-05-06 12:50:00,
2013-05-06 08:55:00,56.8,39.8,30.44,SSW,197,9.0,9.0,53,0.00,,,0.00,Wunderground v.1.15,2013-05-06 12:55:00,
2013-05-06 09:00:00,57.4,40.4,30.44,SE,140,8.0,10.0,53,0.00,,,0.00,Wunderground v.1.15,2013-05-06 13:00:00,
2013-05-06 09:10:00,57.1,40.6,30.44,SSE,152,8.0,9.0,54,0.00,,,0.00,Wunderground v.1.15,2013-05-06 13:10:00,
2013-05-06 09:15:00,57.0,40.0,30.44,SSE,150,8.0,9.0,53,0.00,,,0.00,Wunderground v.1.15,2013-05-06 13:15:00,
2013-05-06 09:20:00,57.0,40.5,30.43,SSW,203,8.0,8.0,54,0.00,,,0.00,Wunderground v.1.15,2013-05-06 13:20:00,
2013-05-06 09:25:00,57.9,40.9,30.43,SE,135,7.0,10.0,53,0.00,,,0.00,Wunderground v.1.15,2013-05-06 13:25:00,
2013-05-06 09:30:00,58.1,40.6,30.43,SSW,202,6.0,7.0,52,0.00,,,0.00,Wunderground v.1.15,2013-05-06 13:30:00,
2013-05-06 09:35:00,58.5,40.4,30.43,SSE,163,7.0,7.0,51,0.00,,,0.00,Wunderground v.1.15,2013-05-06 13:35:00,
2013-05-06 09:45:00,58.7,42.6,30.43,SSE,159,8.0,11.0,55,0.00,,,0.00,Wunderground v.1.15,2013-05-06 13:45:00,
2013-05-06 09:50:00,58.9,40.8,30.43,South,191,6.0,7.0,51,0.00,,,0.00,Wunderground v.1.15,2013-05-06 13:50:00,
2013-05-06 09:55:00,58.8,42.7,30.43,ESE,105,5.0,7.0,55,0.00,,,0.00,Wunderground v.1.15,2013-05-06 13:55:00,
2013-05-06 10:00:00,58.8,42.2,30.43,SE,140,5.0,7.0,54,0.00,,,0.00,Wunderground v.1.15,2013-05-06 14:00:00,
2013-05-06 10:05:00,59.0,41.9,30.43,SE,132,5.0,7.0,53,0.00,,,0.00,Wunderground v.1.15,2013-05-06 14:05:00,
2013-05-06 10:15:00,60.4,43.7,30.43,SE,136,4.0,7.0,54,0.00,,,0.00,Wunderground v.1.15,2013-05-06 14:15:00,
2013-05-06 10:20:00,60.7,41.9,30.43,SSE,165,5.0,7.0,50,0.00,,,0.00,Wunderground v.1.15,2013-05-06 14:20:00,
2013-05-06 10:25:00,60.8,42.5,30.43,South,185,6.0,7.0,51,0.00,,,0.00,Wunderground v.1.15,2013-05-06 14:25:00,
2013-05-06 10:30:00,60.8,42.5,30.43,SSE,147,6.0,7.0,51,0.00,,,0.00,Wunderground v.1.15,2013-05-06 14:30:00,
2013-05-06 10:35:00,60.8,42.5,30.43,SSE,162,5.0,7.0,51,0.00,,,0.00,Wunderground v.1.15,2013-05-06 14:35:00,
2013-05-06 10:40:00,61.7,44.4,30.43,South,177,5.0,7.0,53,0.00,,,0.00,Wunderground v.1.15,2013-05-06 14:40:00,
2013-05-06 10:50:00,62.3,42.9,30.43,ESE,123,4.0,7.0,49,0.00,,,0.00,Wunderground v.1.15,2013-05-06 14:50:00,
2013-05-06 10:55:00,61.8,41.9,30.43,SE,126,5.0,7.0,48,0.00,,,0.00,Wunderground v.1.15,2013-05-06 14:55:00,
2013-05-06 11:00:00,61.7,41.3,30.42,ESE,117,6.0,6.0,47,0.00,,,0.00,Wunderground v.1.15,2013-05-06 15:00:00,
2013-05-06 11:05:00,62.3,41.2,30.42,SSE,161,5.0,7.0,46,0.00,,,0.00,Wunderground v.1.15,2013-05-06 15:05:00,
2013-05-06 11:10:00,62.6,40.9,30.42,SE,126,4.0,7.0,45,0.00,,,0.00,Wunderground v.1.15,2013-05-06 15:10:00,
2013-05-06 11:20:00,62.6,39.8,30.42,ESE,121,8.0,8.0,43,0.00,,,0.00,Wunderground v.1.15,2013-05-06 15:20:00,
2013-05-06 11:25:00,62.8,38.7,30.42,East,91,7.0,10.0,41,0.00,,,0.00,Wunderground v.1.15,2013-05-06 15:25:00,
2013-05-06 11:30:00,62.3,38.9,30.42,ESE,113,8.0,13.0,42,0.00,,,0.00,Wunderground v.1.15,2013-05-06 15:30:00,
2013-05-06 11:35:00,62.6,37.9,30.42,ESE,102,10.0,13.0,40,0.00,,,0.00,Wunderground v.1.15,2013-05-06 15:35:00,
2013-05-06 11:40:00,62.9,41.8,30.42,ESE,113,8.0,8.0,46,0.00,,,0.00,Wunderground v.1.15,2013-05-06 15:40:00,
2013-05-06 11:45:00,63.3,39.8,30.42,ESE,117,7.0,10.0,42,0.00,,,0.00,Wunderground v.1.15,2013-05-06 15:45:00,
2013-05-06 11:50:00,63.2,39.7,30.42,ESE,105,8.0,9.0,42,0.00,,,0.00,Wunderground v.1.15,2013-05-06 15:50:00,
2013-05-06 12:00:00,63.6,40.1,30.41,SE,142,7.0,7.0,42,0.00,,,0.00,Wunderground v.1.15,2013-05-06 16:00:00,
2013-05-06 12:10:00,63.8,40.3,30.41,SE,128,7.0,7.0,42,0.00,,,0.00,Wunderground v.1.15,2013-05-06 16:10:00,
2013-05-06 12:15:00,64.2,38.7,30.41,SE,138,7.0,7.0,39,0.00,,,0.00,Wunderground v.1.15,2013-05-06 16:15:00,
2013-05-06 12:20:00,64.4,39.5,30.41,ESE,113,6.0,8.0,40,0.00,,,0.00,Wunderground v.1.15,2013-05-06 16:20:00,
2013-05-06 12:25:00,64.8,39.9,30.40,SE,127,7.0,11.0,40,0.00,,,0.00,Wunderground v.1.15,2013-05-06 16:25:00,
2013-05-06 12:30:00,65.2,41.5,30.40,ENE,63,7.0,12.0,42,0.00,,,0.00,Wunderground v.1.15,2013-05-06 16:30:00,
2013-05-06 12:35:00,65.8,39.5,30.40,ESE,109,7.0,12.0,38,0.00,,,0.00,Wunderground v.1.15,2013-05-06 16:35:00,
2013-05-06 12:40:00,65.8,38.8,30.40,SE,145,7.0,7.0,37,0.00,,,0.00,Wunderground v.1.15,2013-05-06 16:40:00,
2013-05-06 12:45:00,65.7,38.7,30.40,East,100,6.0,7.0,37,0.00,,,0.00,Wunderground v.1.15,2013-05-06 16:45:00,
2013-05-06 12:55:00,66.5,37.2,30.39,ESE,103,6.0,8.0,34,0.00,,,0.00,Wunderground v.1.15,2013-05-06 16:55:00,
2013-05-06 13:00:00,67.0,38.4,30.39,SSE,149,6.0,6.0,35,0.00,,,0.00,Wunderground v.1.15,2013-05-06 17:00:00,
2013-05-06 13:05:00,67.0,36.9,30.39,East,100,7.0,10.0,33,0.00,,,0.00,Wunderground v.1.15,2013-05-06 17:05:00,
2013-05-06 13:10:00,67.0,36.9,30.39,SSE,153,8.0,8.0,33,0.00,,,0.00,Wunderground v.1.15,2013-05-06 17:10:00,
2013-05-06 13:15:00,67.0,37.7,30.38,ESE,112,7.0,16.0,34,0.00,,,0.00,Wunderground v.1.15,2013-05-06 17:15:00,
2013-05-06 13:20:00,67.5,38.1,30.38,SSE,149,6.0,16.0,34,0.00,,,0.00,Wunderground v.1.15,2013-05-06 17:20:00,
2013-05-06 13:30:00,68.1,38.7,30.37,SSE,148,6.0,6.0,34,0.00,,,0.00,Wunderground v.1.15,2013-05-06 17:30:00,
2013-05-06 13:35:00,68.4,40.4,30.37,South,173,7.0,9.0,36,0.00,,,0.00,Wunderground v.1.15,2013-05-06 17:35:00,
2013-05-06 13:40:00,68.6,39.1,30.37,ESE,104,7.0,16.0,34,0.00,,,0.00,Wunderground v.1.15,2013-05-06 17:40:00,
2013-05-06 13:45:00,68.6,36.7,30.37,East,87,8.0,16.0,31,0.00,,,0.00,Wunderground v.1.15,2013-05-06 17:45:00,
2013-05-06 13:50:00,68.7,38.4,30.37,ESE,103,8.0,16.0,33,0.00,,,0.00,Wunderground v.1.15,2013-05-06 17:50:00,
2013-05-06 14:00:00,69.5,36.7,30.36,SE,140,7.0,7.0,30,0.00,,,0.00,Wunderground v.1.15,2013-05-06 18:00:00,
2013-05-06 14:05:00,69.7,36.0,30.36,East,99,6.0,8.0,29,0.00,,,0.00,Wunderground v.1.15,2013-05-06 18:05:00,
2013-05-06 14:10:00,69.7,36.0,30.36,East,101,6.0,16.0,29,0.00,,,0.00,Wunderground v.1.15,2013-05-06 18:10:00,
2013-05-06 14:15:00,69.9,34.4,30.36,SE,128,7.0,16.0,27,0.00,,,0.00,Wunderground v.1.15,2013-05-06 18:15:00,
2013-05-06 14:20:00,70.0,36.3,30.36,ESE,109,7.0,16.0,29,0.00,,,0.00,Wunderground v.1.15,2013-05-06 18:20:00,
2013-05-06 14:25:00,70.4,36.6,30.36,ESE,116,6.0,16.0,29,0.00,,,0.00,Wunderground v.1.15,2013-05-06 18:25:00,
2013-05-06 14:35:00,70.9,36.1,30.35,ESE,113,6.0,7.0,28,0.00,,,0.00,Wunderground v.1.15,2013-05-06 18:35:00,
2013-05-06 14:40:00,71.1,37.2,30.35,East,80,5.0,16.0,29,0.00,,,0.00,Wunderground v.1.15,2013-05-06 18:40:00,
2013-05-06 14:45:00,71.2,37.3,30.35,East,92,6.0,16.0,29,0.00,,,0.00,Wunderground v.1.15,2013-05-06 18:45:00,
2013-05-06 14:50:00,71.1,35.4,30.34,East,86,7.0,7.0,27,0.00,,,0.00,Wunderground v.1.15,2013-05-06 18:50:00,
2013-05-06 14:55:00,71.3,37.4,30.34,ESE,105,7.0,16.0,29,0.00,,,0.00,Wunderground v.1.15,2013-05-06 18:55:00,
2013-05-06 15:05:00,71.6,39.3,30.34,ENE,74,6.0,9.0,31,0.00,,,0.00,Wunderground v.1.15,2013-05-06 19:05:00,
2013-05-06 15:10:00,71.6,38.5,30.34,ESE,117,7.0,16.0,30,0.00,,,0.00,Wunderground v.1.15,2013-05-06 19:10:00,
2013-05-06 15:15:00,71.4,39.2,30.34,East,98,7.0,16.0,31,0.00,,,0.00,Wunderground v.1.15,2013-05-06 19:15:00,
2013-05-06 15:20:00,71.7,37.7,30.33,SE,142,7.0,7.0,29,0.00,,,0.00,Wunderground v.1.15,2013-05-06 19:20:00,
2013-05-06 15:25:00,71.8,38.7,30.33,SE,136,6.0,16.0,30,0.00,,,0.00,Wunderground v.1.15,2013-05-06 19:25:00,
2013-05-06 15:30:00,72.0,38.9,30.33,ESE,113,5.0,16.0,30,0.00,,,0.00,Wunderground v.1.15,2013-05-06 19:30:00,
2013-05-06 15:35:00,72.1,37.2,30.33,SE,126,6.0,16.0,28,0.00,,,0.00,Wunderground v.1.15,2013-05-06 19:35:00,
2013-05-06 15:44:00,72.5,38.4,30.32,East,93,6.0,10.0,29,0.00,,,0.00,Wunderground v.1.15,2013-05-06 19:44:00,
2013-05-06 15:49:00,72.3,39.1,30.32,East,98,7.0,16.0,30,0.00,,,0.00,Wunderground v.1.15,2013-05-06 19:49:00,
2013-05-06 15:54:00,72.6,39.4,30.32,SE,136,8.0,16.0,30,0.00,,,0.00,Wunderground v.1.15,2013-05-06 19:54:00,
2013-05-06 15:59:00,72.8,37.8,30.31,ESE,109,7.0,16.0,28,0.00,,,0.00,Wunderground v.1.15,2013-05-06 19:59:00,
2013-05-06 16:05:00,72.9,37.9,30.31,East,101,6.0,16.0,28,0.00,,,0.00,Wunderground v.1.15,2013-05-06 20:05:00,
2013-05-06 16:10:00,72.8,37.8,30.31,East,89,7.0,7.0,28,0.00,,,0.00,Wunderground v.1.15,2013-05-06 20:10:00,
2013-05-06 16:15:00,72.8,36.9,30.31,ESE,107,7.0,8.0,27,0.00,,,0.00,Wunderground v.1.15,2013-05-06 20:15:00,
2013-05-06 16:20:00,72.9,39.6,30.31,East,94,8.0,16.0,30,0.00,,,0.00,Wunderground v.1.15,2013-05-06 20:20:00,
2013-05-06 16:25:00,72.8,36.9,30.31,ESE,119,8.0,16.0,27,0.00,,,0.00,Wunderground v.1.15,2013-05-06 20:25:00,
2013-05-06 16:30:00,73.0,40.6,30.30,ESE,120,8.0,8.0,31,0.00,,,0.00,Wunderground v.1.15,2013-05-06 20:30:00,
2013-05-06 16:40:00,73.4,39.2,30.30,SE,127,6.0,16.0,29,0.00,,,0.00,Wunderground v.1.15,2013-05-06 20:40:00,
2013-05-06 16:45:00,73.3,40.0,30.30,SE,136,6.0,16.0,30,0.00,,,0.00,Wunderground v.1.15,2013-05-06 20:45:00,
2013-05-06 16:50:00,73.3,40.0,30.30,ESE,123,6.0,6.0,30,0.00,,,0.00,Wunderground v.1.15,2013-05-06 20:50:00,
2013-05-06 16:55:00,73.2,39.9,30.30,East,95,6.0,9.0,30,0.00,,,0.00,Wunderground v.1.15,2013-05-06 20:55:00,
2013-05-06 17:00:00,73.1,39.8,30.30,East,94,8.0,16.0,30,0.00,,,0.00,Wunderground v.1.15,2013-05-06 21:00:00,
2013-05-06 17:05:00,72.8,38.7,30.29,East,94,9.0,16.0,29,0.00,,,0.00,Wunderground v.1.15,2013-05-06 21:05:00,
2013-05-06 17:15:00,72.9,40.5,30.29,East,93,9.0,16.0,31,0.00,,,0.00,Wunderground v.1.15,2013-05-06 21:15:00,
2013-05-06 17:20:00,72.7,39.5,30.29,East,98,9.0,9.0,30,0.00,,,0.00,Wunderground v.1.15,2013-05-06 21:20:00,
2013-05-06 17:25:00,72.9,40.5,30.29,ESE,119,8.0,10.0,31,0.00,,,0.00,Wunderground v.1.15,2013-05-06 21:25:00,
2013-05-06 17:30:00,72.7,38.6,30.29,ESE,110,8.0,16.0,29,0.00,,,0.00,Wunderground v.1.15,2013-05-06 21:30:00,
2013-05-06 17:35:00,72.8,40.4,30.29,ESE,106,9.0,16.0,31,0.00,,,0.00,Wunderground v.1.15,2013-05-06 21:35:00,
2013-05-06 17:45:00,72.9,38.8,30.29,East,101,8.0,16.0,29,0.00,,,0.00,Wunderground v.1.15,2013-05-06 21:45:00,
2013-05-06 17:50:00,72.8,39.5,30.29,ESE,122,9.0,16.0,30,0.00,,,0.00,Wunderground v.1.15,2013-05-06 21:50:00,
2013-05-06 17:55:00,72.7,37.7,30.29,East,86,9.0,16.0,28,0.00,,,0.00,Wunderground v.1.15,2013-05-06 21:55:00,
2013-05-06 18:00:00,72.8,37.8,30.28,East,101,9.0,9.0,28,0.00,,,0.00,Wunderground v.1.15,2013-05-06 22:00:00,
2013-05-06 18:10:00,72.9,38.8,30.28,ENE,77,8.0,8.0,29,0.00,,,0.00,Wunderground v.1.15,2013-05-06 22:10:00,
2013-05-06 18:20:00,72.9,37.9,30.28,East,101,7.0,7.0,28,0.00,,,0.00,Wunderground v.1.15,2013-05-06 22:20:00,
2013-05-06 18:25:00,72.9,39.6,30.28,ESE,110,7.0,8.0,30,0.00,,,0.00,Wunderground v.1.15,2013-05-06 22:25:00,
2013-05-06 18:30:00,72.8,39.5,30.28,East,97,7.0,7.0,30,0.00,,,0.00,Wunderground v.1.15,2013-05-06 22:30:00,
2013-05-06 18:35:00,72.8,39.5,30.28,East,98,6.0,7.0,30,0.00,,,0.00,Wunderground v.1.15,2013-05-06 22:35:00,
2013-05-06 18:40:00,72.9,39.6,30.28,ESE,103,5.0,5.0,30,0.00,,,0.00,Wunderground v.1.15,2013-05-06 22:40:00,
2013-05-06 18:50:00,72.7,41.1,30.28,East,92,5.0,5.0,32,0.00,,,0.00,Wunderground v.1.15,2013-05-06 22:50:00,
2013-05-06 18:55:00,72.5,41.7,30.28,East,92,6.0,6.0,33,0.00,,,0.00,Wunderground v.1.15,2013-05-06 22:55:00,
2013-05-06 19:00:00,72.3,40.8,30.28,East,98,5.0,5.0,32,0.00,,,0.00,Wunderground v.1.15,2013-05-06 23:00:00,
2013-05-06 19:05:00,72.1,42.2,30.28,ESE,112,4.0,7.0,34,0.00,,,0.00,Wunderground v.1.15,2013-05-06 23:05:00,
2013-05-06 19:10:00,72.1,41.4,30.28,East,97,4.0,14.0,33,0.00,,,0.00,Wunderground v.1.15,2013-05-06 23:10:00,
2013-05-06 19:15:00,72.0,40.5,30.28,ESE,107,5.0,14.0,32,0.00,,,0.00,Wunderground v.1.15,2013-05-06 23:15:00,
2013-05-06 19:20:00,71.9,40.4,30.28,East,90,4.0,4.0,32,0.00,,,0.00,Wunderground v.1.15,2013-05-06 23:20:00,
2013-05-06 19:25:00,71.9,41.2,30.28,ESE,105,4.0,14.0,33,0.00,,,0.00,Wunderground v.1.15,2013-05-06 23:25:00,
2013-05-06 19:30:00,71.5,41.6,30.28,East,98,3.0,14.0,34,0.00,,,0.00,Wunderground v.1.15,2013-05-06 23:30:00,
2013-05-06 19:35:00,70.9,41.9,30.28,ESE,113,4.0,14.0,35,0.00,,,0.00,Wunderground v.1.15,2013-05-06 23:35:00,
2013-05-06 19:40:00,70.5,41.5,30.28,East,99,4.0,4.0,35,0.00,,,0.00,Wunderground v.1.15,2013-05-06 23:40:00,
2013-05-06 19:50:00,69.5,42.8,30.28,East,101,4.0,4.0,38,0.00,,,0.00,Wunderground v.1.15,2013-05-06 23:50:00,
2013-05-06 19:55:00,68.8,42.1,30.28,East,101,3.0,14.0,38,0.00,,,0.00,Wunderground v.1.15,2013-05-06 23:55:00,
2013-05-06 20:00:00,68.9,40.8,30.28,East,101,2.0,14.0,36,0.00,,,0.00,Wunderground v.1.15,2013-05-07 00:00:00,
2013-05-06 20:05:00,69.1,41.0,30.28,East,101,2.0,14.0,36,0.00,,,0.00,Wunderground v.1.15,2013-05-07 00:05:00,
2013-05-06 20:10:00,69.1,41.0,30.28,East,101,2.0,14.0,36,0.00,,,0.00,Wunderground v.1.15,2013-05-07 00:10:00,
2013-05-06 20:15:00,68.9,40.1,30.28,East,101,2.0,14.0,35,0.00,,,0.00,Wunderground v.1.15,2013-05-07 00:15:00,
2013-05-06 20:25:00,68.7,42.1,30.29,SE,145,2.0,14.0,38,0.00,,,0.00,Wunderground v.1.15,2013-05-07 00:25:00,
2013-05-06 20:30:00,68.5,41.9,30.29,SE,146,2.0,14.0,38,0.00,,,0.00,Wunderground v.1.15,2013-05-07 00:30:00,
2013-05-06 20:35:00,68.2,42.9,30.29,SSE,150,2.0,14.0,40,0.00,,,0.00,Wunderground v.1.15,2013-05-07 00:35:00,
2013-05-06 20:40:00,67.6,44.3,30.29,South,178,2.0,14.0,43,0.00,,,0.00,Wunderground v.1.15,2013-05-07 00:40:00,
2013-05-06 20:45:00,67.0,44.9,30.29,SSE,167,2.0,14.0,45,0.00,,,0.00,Wunderground v.1.15,2013-05-07 00:45:00,
2013-05-06 20:50:00,66.5,45.6,30.29,SSE,160,3.0,3.0,47,0.00,,,0.00,Wunderground v.1.15,2013-05-07 00:50:00,
2013-05-06 21:00:00,66.2,46.5,30.30,SSE,159,2.0,2.0,49,0.00,,,0.00,Wunderground v.1.15,2013-05-07 01:00:00,
2013-05-06 21:05:00,66.0,46.3,30.30,South,178,2.0,4.0,49,0.00,,,0.00,Wunderground v.1.15,2013-05-07 01:05:00,
2013-05-06 21:10:00,65.9,46.7,30.30,SSE,165,3.0,14.0,50,0.00,,,0.00,Wunderground v.1.15,2013-05-07 01:10:00,
2013-05-06 21:15:00,65.7,47.1,30.30,South,180,4.0,14.0,51,0.00,,,0.00,Wunderground v.1.15,2013-05-07 01:15:00,
2013-05-06 21:20:00,65.7,47.6,30.31,South,176,4.0,4.0,52,0.00,,,0.00,Wunderground v.1.15,2013-05-07 01:20:00,
2013-05-06 21:30:00,65.6,48.0,30.31,SSE,162,4.0,14.0,53,0.00,,,0.00,Wunderground v.1.15,2013-05-07 01:30:00,
2013-05-06 21:35:00,65.6,48.0,30.31,SSE,164,4.0,14.0,53,0.00,,,0.00,Wunderground v.1.15,2013-05-07 01:35:00,
2013-05-06 21:40:00,65.5,47.9,30.31,SSE,167,4.0,14.0,53,0.00,,,0.00,Wunderground v.1.15,2013-05-07 01:40:00,
2013-05-06 21:45:00,65.3,48.2,30.31,South,175,4.0,14.0,54,0.00,,,0.00,Wunderground v.1.15,2013-05-07 01:45:00,
2013-05-06 21:50:00,65.2,48.1,30.31,South,187,4.0,14.0,54,0.00,,,0.00,Wunderground v.1.15,2013-05-07 01:50:00,
2013-05-06 21:55:00,64.9,47.9,30.32,South,182,5.0,14.0,54,0.00,,,0.00,Wunderground v.1.15,2013-05-07 01:55:00,
2013-05-06 22:05:00,64.3,48.3,30.32,South,190,4.0,14.0,56,0.00,,,0.00,Wunderground v.1.15,2013-05-07 02:05:00,
2013-05-06 22:10:00,64.0,48.5,30.32,South,186,4.0,4.0,57,0.00,,,0.00,Wunderground v.1.15,2013-05-07 02:10:00,
2013-05-06 22:15:00,63.8,48.3,30.32,South,186,4.0,14.0,57,0.00,,,0.00,Wunderground v.1.15,2013-05-07 02:15:00,
2013-05-06 22:20:00,63.5,48.5,30.32,South,187,4.0,4.0,58,0.00,,,0.00,Wunderground v.1.15,2013-05-07 02:20:00,
2013-05-06 22:25:00,63.2,48.2,30.32,South,187,4.0,14.0,58,0.00,,,0.00,Wunderground v.1.15,2013-05-07 02:25:00,
2013-05-06 22:35:00,63.1,48.1,30.32,South,184,5.0,5.0,58,0.00,,,0.00,Wunderground v.1.15,2013-05-07 02:35:00,
2013-05-06 22:40:00,63.2,48.2,30.32,South,182,5.0,5.0,58,0.00,,,0.00,Wunderground v.1.15,2013-05-07 02:40:00,
2013-05-06 22:45:00,63.1,48.1,30.32,South,180,5.0,14.0,58,0.00,,,0.00,Wunderground v.1.15,2013-05-07 02:45:00,
2013-05-06 22:50:00,62.9,48.3,30.32,South,188,5.0,5.0,59,0.00,,,0.00,Wunderground v.1.15,2013-05-07 02:50:00,
2013-05-06 22:55:00,62.7,48.2,30.32,SSW,194,5.0,7.0,59,0.00,,,0.00,Wunderground v.1.15,2013-05-07 02:55:00,
2013-05-06 23:00:00,62.7,48.2,30.32,SSW,198,5.0,5.0,59,0.00,,,0.00,Wunderground v.1.15,2013-05-07 03:00:00,
2013-05-06 23:09:00,62.5,48.4,30.32,SSW,199,5.0,14.0,60,0.00,,,0.00,Wunderground v.1.15,2013-05-07 03:09:00,
2013-05-06 23:15:00,62.2,48.1,30.32,SW,215,5.0,14.0,60,0.00,,,0.00,Wunderground v.1.15,2013-05-07 03:15:00,
2013-05-06 23:20:00,62.1,48.0,30.32,SW,219,5.0,14.0,60,0.00,,,0.00,Wunderground v.1.15,2013-05-07 03:20:00,
2013-05-06 23:25:00,61.9,48.3,30.32,SSW,207,5.0,14.0,61,0.00,,,0.00,Wunderground v.1.15,2013-05-07 03:25:00,
2013-05-06 23:30:00,61.6,48.0,30.32,SW,215,5.0,5.0,61,0.00,,,0.00,Wunderground v.1.15,2013-05-07 03:30:00,
2013-05-06 23:35:00,61.2,48.1,30.32,SSW,212,4.0,6.0,62,0.00,,,0.00,Wunderground v.1.15,2013-05-07 03:35:00,
2013-05-06 23:40:00,61.0,47.9,30.32,SSW,211,4.0,14.0,62,0.00,,,0.00,Wunderground v.1.15,2013-05-07 03:40:00,
2013-05-06 23:45:00,60.7,48.0,30.33,SSW,211,4.0,14.0,63,0.00,,,0.00,Wunderground v.1.15,2013-05-07 03:45:00,
2013-05-06 23:50:00,60.4,47.7,30.33,SSW,208,4.0,14.0,63,0.00,,,0.00,Wunderground v.1.15,2013-05-07 03:50:00,
2013-05-06 23:55:00,60.2,48.0,30.33,SSW,209,5.0,14.0,64,0.00,,,0.00,Wunderground v.1.15,2013-05-07 03:55:00,